Location: Larrial
(48.2758°N, 4.5331°W)
Time: 21:28:18
(UTC+00:00)

STARLINK-1192 - Pass Details

Date: 09 April 2020
Orbit: 549 x 550 km, 53.0° (Epoch: 03 June)

Event Time Altitude Azimuth Distance (km) Brightness Sun altitude
Rises 19:48:45 0° 292° (WNW) 2,668 9.7 -8.4°
Reaches altitude 10° 19:51:00 10° 297° (WNW) 1,777 7.9 -8.8°
Maximum altitude 19:54:57 54° 16° (NNE) 647 4.0 -9.4°
Enters shadow 19:58:32 12° 93° (E) 1,631 5.4 -9.9°
